Location: Zagreb
(45.8000°N, 16.0000°E)
Time: 16:51:53
(UTC+01:00)

Tiros 1 despin weight - Pass Details

Date: 01 February 2020
Orbit: 594 x 642 km, 48.2° (Epoch: 25 February)

Event Time Altitude Azimuth Distance (km) Brightness Sun altitude
Rises 10:53:16 0° 269° (W) 2,851 ? 24.7°
Reaches altitude 10° 10:55:34 10° 273° (W) 1,955 ? 24.8°
Maximum altitude 11:00:01 65° 355° (N) 677 ? 25.1°
Drops below altitude 10° 11:04:34 10° 78° (ENE) 1,987 ? 25.3°
Sets 11:06:55 0° 81° (E) 2,902 ? 25.4°
